Regional Weather Roundup
Issued by NWS

Home | Current Version | Previous Version | Graphics & Text | Print | Product List | Glossary On
Versions: 1 2 3 4 5 6 7 8 9 10 11 12 13 14 15 16 17 18 19 20 21 22 23 24 25 26 27 28 29 30 31 32 33 34 35 36 37 38 39 40 41 42 43 44 45 46 47 48 49 50
000
ASUS43 KLSX 190307
RWRMO

WEATHER SUMMARY FOR MISSOURI
NATIONAL WEATHER SERVICE SPRINGFIELD MO
1000 PM CDT WED OCT 18 2017

NOTE: "FAIR" INDICATES FEW OR NO CLOUDS BELOW 12,000 FEET WITH NO
       SIGNIFICANT WEATHER AND/OR OBSTRUCTIONS TO VISIBILITY.
       CURRENT SKY AND/OR WEATHER CONDITIONS ARE NOT AVAILABLE FOR
       CHILLICOTHE AND FARMINGTON.

MOZ001>031-035>038-043-044-053-054-190400-
...NORTHERN AND WESTERN MISSOURI...

CITY           SKY/WX    TMP DP  RH WIND       PRES   REMARKS
KANSAS CTY INT CLEAR     54  49  83 S8        30.04R
KANSAS C DTWN  CLEAR     65  52  62 SW9       30.04R
LEE`S SUMMIT   CLEAR     63  51  65 S12       30.06R
ST JOSEPH      CLEAR     50  49  96 CALM      30.03R
CHILLICOTHE      N/A     60  50  69 S5        30.06R
KIRKSVILLE     CLEAR     54  49  83 S5        30.06R

$$
MOZ066>068-077>081-088>096-101>105-190400-
...SOUTHWEST MISSOURI...

CITY           SKY/WX    TMP DP  RH WIND       PRES   REMARKS
SPRINGFIELD    CLEAR     57  43  59 S8        30.11R
JOPLIN         CLEAR     60  47  61 S9        30.09R
BRANSON        CLEAR     61  45  55 S8        30.13S

$$
MOZ032>034-039>042-045>050-055>058-069>072-190400-
...CENTRAL MISSOURI...

CITY           SKY/WX    TMP DP  RH WIND       PRES   REMARKS
COLUMBIA       CLEAR     61  45  55 S6        30.08R
JEFFERSON CITY CLOUDY    61  44  53 CALM      30.07R
ROLLA          PTCLDY    61  47  59 S13       30.11R
SEDALIA        CLEAR     62  51  67 S6        30.08R
WHITEMAN AFB   CLEAR     58  50  75 S5        30.03R
WARRENSBURG    CLEAR     55  50  82 S5        30.06R
OSAGE BEACH    PTCLDY    62  46  55 S5        30.09R

$$
MOZ051-052-059>065-190400-
...EAST CENTRAL MISSOURI...

CITY           SKY/WX    TMP DP  RH WIND       PRES   REMARKS
ST LOUIS INTL  PTCLDY    64  48  56 S8        30.10S
SPIRIT OF STL  CLEAR     66  47  50 VRB6      30.08S
ST CHARLES     CLEAR     62  47  57 S8        30.09R

$$
MOZ072>076-082>087-097>100-106>115-190400-
...SOUTH CENTRAL AND SOUTHEAST MISSOURI...

CITY           SKY/WX    TMP DP  RH WIND       PRES   REMARKS
CAPE GIRARDEAU CLEAR     57  47  69 S8        30.17S
FARMINGTON     CLEAR     60  48  64 S8        30.15S
POPLAR BLUFF   CLEAR     60  48  64 S6        30.16S
WEST PLAINS    CLEAR     60  48  64 S6        30.16R

$$


USA.gov is the U.S. government's official web portal to all federal, state and local government web resources and services.